Location: Gälforsberget
(66.6500°N, 22.4167°E)
Time: 06:54:29
(UTC+00:00)

Cosmos 1818 - Pass Details

Date: 11 April 2026
Orbit: 774 x 797 km, 65.0° (Epoch: 13 May)

Event Time Altitude Azimuth Distance (km) Brightness Sun altitude
Rises 21:58:44 0° 288° (WNW) 3,305 7.2 -14.5°
Reaches altitude 10° 22:01:11 10° 284° (WNW) 2,376 6.3 -14.6°
Maximum altitude 22:06:30 54° 209° (SSW) 967 3.7 -14.6°
Enters shadow 22:11:03 14° 135° (SE) 2,097 5.3 -14.7°
